Location: Washington
(38.8950°N, 77.0370°W)
Time: 12:20:15
(UTC-05:00)

IDEFIX/ARIANE 42P - Visible Passes

Search period start: 24 February 2017 00:00
Search period end: 06 March 2017 00:00
Orbit: 786 x 802 km, 98.2° (Epoch: 23 February)

Date Brightness Start Highest point End Pass type
(mag) Time Alt. Az. Time Alt. Az. Time Alt. Az.
24 Feb 2.6 06:19:40 10° NNE 06:24:55 89° WNW 06:30:07 10° SSW visible
25 Feb 3.7 05:51:30 10° NNE 05:56:34 49° E 06:01:34 10° S visible
25 Feb 5.9 18:50:50 10° SW 18:53:45 15° W 18:56:41 10° WNW visible
26 Feb 4.9 05:23:45 10° NE 05:28:05 26° E 05:32:24 10° SSE visible
26 Feb 5.1 18:20:44 10° SSW 18:25:11 28° W 18:29:40 10° NW visible
27 Feb 5.7 04:56:52 10° ENE 04:59:30 14° E 05:02:08 10° ESE visible
28 Feb 3.0 06:06:02 10° NNE 06:11:15 69° ESE 06:16:24 10° S visible
28 Feb 6.4 19:08:26 10° W 19:08:36 10° W 19:08:46 10° W visible
01 Mar 4.3 05:38:02 10° NNE 05:42:50 36° E 05:47:36 10° SSE visible
01 Mar 5.7 18:36:10 10° SW 18:39:58 20° W 18:43:47 10° NW visible
02 Mar 5.4 05:10:34 10° NE 05:14:19 20° E 05:18:01 10° SE visible
04 Mar 3.6 05:52:28 10° NNE 05:57:33 51° E 06:02:34 10° S visible
04 Mar 6.0 18:52:04 10° WSW 18:54:47 14° W 18:57:30 10° WNW visible
05 Mar 4.9 05:24:41 10° NE 05:29:05 27° E 05:33:27 10° SSE visible
